EC5ZZ-13 Weather Reports


time (UTC)temp
C
wind
direction
speed
KPH
gust
KPH
rain 1hr
cm
rain 24hr
cm
rain mn
cm
humidity
%
barometer
mb
20260508040030 10 315 4.8 6.4 0.00 0.64 0.00 92 1011.0
20260508035114 10 333 4.8 6.4 0.00 0.64 0.00 92 1010.9
20260508034051 10 311 3.2 6.4 0.00 0.64 0.00 93 1011.2
20260508033124 10 353 3.2 6.4 0.00 0.64 0.00 93 1011.2
20260508032049 11 321 3.2 4.8 0.00 0.64 0.00 93 1011.4
20260508031050 11 307 3.2 6.4 0.00 0.64 0.00 93 1011.4
20260508030112 11 322 1.6 3.2 0.00 0.64 0.00 93 1011.4
20260508025054 11 306 3.2 4.8 0.00 0.64 0.00 93 1011.4
20260508024032 11 301 3.2 6.4 0.00 0.64 0.00 93 1011.5
20260508023110 11 315 4.8 6.4 0.00 0.64 0.00 93 1011.4
20260508022050 11 345 3.2 4.8 0.00 0.64 0.00 93 1011.5
20260508021027 11 327 3.2 6.4 0.00 0.64 0.00 94 1011.6
20260508020109 11 322 3.2 6.4 0.00 0.64 0.00 94 1011.7
20260508015110 11 315 3.2 6.4 0.00 0.64 0.00 94 1011.7
20260508014117 11 316 3.2 4.8 0.00 0.64 0.00 95 1011.8
20260508013022 11 320 3.2 6.4 0.00 0.64 0.00 95 1011.8
20260508012102 11 309 3.2 4.8 0.00 0.64 0.00 96 1011.9
20260508011042 11 318 3.2 6.4 0.00 0.64 0.00 97 1012.1
20260508010024 11 279 3.2 4.8 0.00 0.64 0.00 97 1012.2
20260508005123 11 316 3.2 6.4 0.00 0.64 0.00 98 1012.3
20260508004047 11 308 3.2 6.4 0.00 0.64 0.00 98 1012.3
20260508003029 11 302 4.8 6.4 0.00 0.64 0.00 99 1012.4
20260508002106 11 307 4.8 8.0 0.00 0.64 0.00 99 1012.5
20260508001043 11 274 4.8 8.0 0.00 0.64 0.00 99 1012.4
20260508000122 11 305 3.2 6.4 0.00 0.64 0.00 99 1012.5
20260507235056 11 315 3.2 6.4 0.00 0.64 0.00 99 1012.7
20260507234035 11 300 3.2 6.4 0.00 0.64 0.00 99 1012.7
20260507233119 11 318 3.2 6.4 0.00 0.64 0.00 99 1012.7
20260507232057 12 0.0 0.0 0.00 0.64 0.00 99 1012.9
20260507231039 12 350 1.6 4.8 0.00 0.64 0.00 99 1012.8
20260507230022 12 318 1.6 3.2 0.00 0.64 0.00 99 1012.9
20260507225103 12 341 3.2 6.4 0.00 0.64 0.00 99 1012.8
20260507224049 12 322 3.2 6.4 0.00 0.64 0.00 99 1013.0
20260507223039 12 324 4.8 8.0 0.00 0.64 0.00 97 1013.1
20260507222027 12 337 3.2 6.4 0.00 0.64 0.00 97 1013.3
20260507221111 12 339 3.2 4.8 0.00 0.64 0.00 97 1013.2
20260507220100 12 330 3.2 6.4 0.00 0.64 0.00 97 1013.1
20260507215038 12 315 4.8 8.0 0.00 0.64 0.64 97 1013.0
20260507214019 13 319 3.2 6.4 0.00 0.64 0.64 96 1013.0
20260507213104 13 325 3.2 8.0 0.00 0.64 0.64 96 1012.9
20260507212124 13 334 3.2 4.8 0.00 0.64 0.64 96 1012.8
20260507211120 13 331 1.6 6.4 0.00 0.64 0.64 95 1012.6
20260507210047 13 342 1.6 6.4 0.00 0.64 0.64 95 1012.5
20260507205028 13 315 0.0 3.2 0.00 0.64 0.64 95 1012.3
20260507204045 13 0.0 1.6 0.00 0.64 0.64 95 1012.3
20260507203030 13 0.0 1.6 0.00 0.64 0.64 94 1012.2
20260507202113 13 0.0 1.6 0.00 0.64 0.64 94 1012.1
20260507201103 13 315 0.0 3.2 0.00 0.64 0.64 93 1012.0
20260507200029 13 0.0 0.0 0.00 0.64 0.64 93 1011.9
20260507195114 13 0.0 1.6 0.00 0.64 0.64 93 1011.9
20260507194101 13 0.0 1.6 0.03 0.64 0.64 92 1011.8
20260507193051 13 330 0.0 3.2 0.05 0.64 0.64 92 1011.5
20260507192039 13 0.0 1.6 0.10 0.64 0.64 91 1011.5
20260507191020 13 0.0 1.6 0.13 0.64 0.64 91 1011.7
20260507190104 13 0.0 3.2 0.18 0.64 0.64 91 1011.8
20260507185049 14 204 0.0 3.2 0.20 0.64 0.64 91 1011.8
20260507184023 13 315 0.0 3.2 0.23 0.61 0.61 91 1011.9
20260507183105 13 195 0.0 3.2 0.23 0.56 0.56 90 1011.9
20260507182049 13 0.0 3.2 0.38 0.53 0.53 90 1011.7
20260507181024 14 342 0.0 3.2 0.51 0.51 0.51 90 1011.7
20260507180110 14 302 0.0 3.2 0.46 0.46 0.46 90 1011.7
20260507175049 14 0 0.0 3.2 0.43 0.43 0.43 89 1011.7
20260507174032 14 330 4.8 6.4 0.36 0.36 0.36 87 1011.6
20260507173120 14 11 3.2 8.0 0.33 0.33 0.33 83 1011.6
20260507172056 15 346 6.4 11.3 0.15 0.15 0.15 77 1011.6
20260507171119 16 274 8.0 12.9 0.00 0.00 0.00 71 1011.3
20260507170116 17 352 16.1 22.5 0.00 0.00 0.00 65 1011.0
20260507165054 18 15 12.9 24.1 0.00 0.00 0.00 57 1011.0
20260507164039 20 356 1.6 3.2 0.00 0.00 0.00 65 1010.9
20260507163116 20 15 3.2 6.4 0.00 0.00 0.00 65 1010.6
20260507162059 20 45 1.6 6.4 0.00 0.00 0.00 66 1010.5
20260507161040 20 355 1.6 6.4 0.00 0.00 0.00 64 1010.3
20260507160025 20 331 1.6 6.4 0.00 0.00 0.00 65 1010.3
20260507155102 20 329 3.2 8.0 0.00 0.00 0.00 65 1010.3
20260507154040 20 19 3.2 6.4 0.00 0.00 0.00 64 1010.4
20260507153026 20 3 4.8 9.7 0.00 0.00 0.00 64 1010.3
20260507152114 20 79 3.2 8.0 0.00 0.00 0.00 63 1010.2
20260507151052 21 336 3.2 8.0 0.00 0.00 0.00 63 1010.2
20260507150032 21 16 3.2 8.0 0.00 0.00 0.00 62 1010.1
20260507145117 21 315 4.8 8.0 0.00 0.00 0.00 64 1010.3
20260507144106 21 68 4.8 19.3 0.00 0.00 0.00 63 1010.3
20260507143050 21 338 6.4 12.9 0.00 0.00 0.00 60 1010.5
20260507142100 21 50 4.8 11.3 0.00 0.00 0.00 59 1010.5
20260507141108 22 35 4.8 9.7 0.00 0.00 0.00 54 1010.6
20260507140048 23 58 3.2 6.4 0.00 0.00 0.00 48 1010.5
20260507135030 24 341 3.2 9.7 0.00 0.00 0.00 43 1010.7
20260507134130 23 348 3.2 12.9 0.00 0.00 0.00 47 1010.8
20260507133057 23 41 6.4 11.3 0.00 0.00 0.00 47 1010.8
20260507132040 25 297 3.2 8.0 0.00 0.00 0.00 50 1010.9
20260507131027 23 78 4.8 8.0 0.00 0.00 0.00 50 1010.9
20260507130111 24 3 3.2 8.0 0.00 0.00 0.00 50 1011.0
20260507125054 22 345 3.2 9.7 0.00 0.00 0.00 54 1011.1
20260507124100 22 59 4.8 8.0 0.00 0.00 0.00 52 1011.1
20260507123027 22 42 6.4 9.7 0.00 0.00 0.00 51 1011.2
20260507122113 22 13 4.8 8.0 0.00 0.00 0.00 53 1011.3
20260507121054 21 45 4.8 11.3 0.00 0.00 0.00 50 1011.5
20260507120035 20 349 4.8 11.3 0.00 0.00 0.00 51 1011.7
20260507115021 20 7 4.8 9.7 0.00 0.00 0.00 52 1011.8
20260507114123 20 12 8.0 14.5 0.00 0.00 0.00 52 1012.1
20260507113041 21 6 8.0 14.5 0.00 0.00 0.00 55 1011.9
20260507112030 21 30 6.4 14.5 0.00 0.00 0.00 58 1011.8
20260507111105 21 69 8.0 16.1 0.00 0.00 0.00 59 1012.0
20260507110050 21 16 4.8 11.3 0.00 0.00 0.00 55 1012.1
20260507105032 22 50 4.8 12.9 0.00 0.00 0.00 52 1012.0
20260507104116 24 341 6.4 17.7 0.00 0.00 0.00 42 1012.0
20260507103100 25 26 4.8 14.5 0.00 0.00 0.00 40 1011.8
20260507102044 25 22 6.4 12.9 0.00 0.00 0.00 40 1011.9
20260507101053 25 90 6.4 9.7 0.00 0.00 0.00 42 1011.9
20260507100018 23 3 3.2 8.0 0.00 0.00 0.00 45 1011.9
20260507095107 23 4 4.8 11.3 0.00 0.00 0.00 42 1012.1
20260507094053 22 359 4.8 11.3 0.00 0.00 0.00 48 1012.1
20260507093039 22 12 3.2 6.4 0.00 0.00 0.00 51 1012.1
20260507092027 22 67 4.8 12.9 0.00 0.00 0.00 48 1012.2
20260507091113 22 8 4.8 11.3 0.00 0.00 0.00 48 1012.2
20260507085122 22 34 3.2 6.4 0.00 0.00 0.00 55 1012.2
20260507084025 20 37 3.2 6.4 0.00 0.00 0.00 56 1012.2
20260507083108 20 52 4.8 6.4 0.00 0.00 0.00 60 1012.2
20260507082057 19 13 3.2 6.4 0.00 0.00 0.00 62 1012.2
20260507081039 19 26 4.8 9.7 0.00 0.00 0.00 62 1012.2
20260507080020 19 17 4.8 11.3 0.00 0.00 0.00 60 1012.2
20260507075124 21 3 4.8 11.3 0.00 0.00 0.00 58 1012.3
20260507074047 21 48 4.8 8.0 0.00 0.00 0.00 59 1012.0
20260507073024 20 42 3.2 11.3 0.00 0.00 0.00 61 1012.0
20260507072111 19 101 3.2 6.4 0.00 0.00 0.00 61 1011.9
20260507071058 19 42 1.6 6.4 0.00 0.00 0.00 56 1011.8
20260507070042 20 0.0 3.2 0.00 0.00 0.00 58 1011.7
20260507065050 18 0.0 1.6 0.00 0.00 0.00 65 1011.6
20260507064112 15 354 1.6 3.2 0.00 0.00 0.00 72 1011.6
20260507063100 13 314 1.6 3.2 0.00 0.00 0.00 72 1011.6
20260507062049 13 350 1.6 3.2 0.00 0.00 0.00 72 1011.5
20260507061036 13 324 1.6 3.2 0.00 0.00 0.00 71 1011.5
20260507060023 13 345 1.6 3.2 0.00 0.00 0.00 72 1011.5
20260507055106 13 315 0.0 3.2 0.00 0.00 0.00 73 1011.5
20260507054052 12 0.0 1.6 0.00 0.00 0.00 74 1011.4
20260507053038 12 315 0.0 3.2 0.00 0.00 0.00 77 1011.4
20260507052139 11 315 1.6 3.2 0.00 0.00 0.00 77 1011.3
20260507051058 11 315 1.6 3.2 0.00 0.00 0.00 77 1011.1
20260507050046 11 306 4.8 6.4 0.00 0.00 0.00 79 1011.0
20260507045047 11 299 3.2 4.8 0.00 0.00 0.00 79 1010.9
20260507044112 11 315 4.8 6.4 0.00 0.00 0.00 80 1010.9
20260507043057 11 311 3.2 4.8 0.00 0.00 0.00 80 1010.8
20260507042045 11 310 3.2 4.8 0.00 0.00 0.00 81 1010.7
20260507041025 11 311 3.2 3.2 0.00 0.00 0.00 81 1010.8
20260507040150 11 342 3.2 3.2 0.00 0.00 0.00 81 1010.8